Flag for Austria Weather past 2 weeks in Enns, Upper Austria, Austria

Now
62 °F

Light rain. Low clouds.


Feels Like: 62 °F
Forecast: 52 / 66 °F
Wind: N/A

Location: Linz / Hoersching-Flughafen

Current Time: Oct 1, 2014 at 3:53:18 PM

Latest Report: Oct 1, 2014 at 3:00 PM


Visibility: 10 mi

Pressure: 30.27 "Hg

Humidity: 89%

Dew point: 59 °F

Location of EnnsLocation

Historic Weather in Enns — Graph

°F

Enns temperature yesterday

Maximum temperature yesterday: 67 °F (at 5:00 PM)
Minimum temperature yesterday: 53 °F (at 12:00 AM)
Average temperature yesterday: 59 °F

Past Weeks' High & Low Weather Summary

 TemperatureHumidityPressure
High75 °F (Sep 17, 4:00 PM)100% (Sep 20, 5:00 AM)30.41 "Hg (Sep 20, 5:00 AM)
Low38 °F (Sep 24, 8:00 AM)43% (Sep 17, 5:00 PM)29.87 "Hg (Sep 22, 1:00 AM)
Average58 °F83%30.11 "Hg
* Reported Sep 16 2:00 PM — Oct 1 2:00 PM, Enns, Weather by CustomWeather, © 2014

Note: Actual official high and low records may vary slightly from our data, if they occured in-between our weather recording intervals... More about our weather records

Advertising

Enns weather history for previous 24 hours

 ConditionsComfort  
Time TempWeatherWind HumidityBarometerVisibility
2:00 PM
Oct 1
61 °FLight rain. Low clouds.14 mph91%30.28 "Hg7 mi
1:00 PM62 °FLight rain. Low clouds.N/A91%30.29 "Hg4 mi
12:00 PMN/APassing clouds.10 mphN/AN/A12 mi
11:00 AM60 °FDrizzle. Low clouds.N/A95%30.29 "Hg2 mi
10:00 AM60 °FLight rain. Low clouds.N/A96%30.29 "Hg1 mi
9:00 AMN/APassing clouds.10 mphN/AN/A11 mi
8:00 AM59 °FLight rain. Low clouds.N/A97%30.28 "Hg1 mi
7:00 AM59 °FDrizzle. Low clouds.N/A97%30.27 "Hg1 mi
6:00 AM59 °FLight rain. Low clouds.N/A98%30.27 "Hg1 mi
5:00 AM59 °FLight rain. Low clouds.N/A97%30.28 "Hg2 mi
4:00 AM60 °FDrizzle. Low clouds.N/A96%30.29 "Hg2 mi
3:00 AMN/APassing clouds.7 mphN/AN/A10 mi
2:00 AM60 °FRain showers. Low clouds.N/A94%30.29 "Hg2 mi
1:00 AM60 °FDrizzle. Low clouds.N/A94%30.28 "Hg2 mi
12:00 AM60 °FRain showers. Overcast.N/A94%30.28 "Hg2 mi
11:00 PM
Sep 30
60 °FLight rain. Overcast.N/A94%30.28 "Hg2 mi
10:00 PM60 °FOvercast.N/A93%30.28 "Hg4 mi
9:00 PM61 °FOvercast.N/A90%30.28 "Hg5 mi
8:00 PM63 °FOvercast.N/A88%30.26 "Hg5 mi
7:00 PM64 °FOvercast.N/A85%30.25 "Hg4 mi
6:00 PM66 °FOvercast.N/A80%30.25 "Hg4 mi
5:00 PM67 °FPartly sunny.N/A75%30.24 "Hg4 mi
4:00 PM67 °FPartly sunny.N/A76%30.26 "Hg5 mi
3:00 PM64 °FPartly sunny.N/A79%30.28 "Hg3 mi
Weather by CustomWeather, © 2014

See weather overviewHow to use our weather pages